ATLAS 5 CENTAUR DEB, 44693

Orbit data source: Space-Track

ATLAS 5 CENTAUR DEB, 44693 is space debris in HEO originally from a launch on Wed, 17 Oct 2018 UTC launched from the Air Force Eastern Test Range (AFETR). Debris objects in space refer to the collection of defunct objects orbiting the Earth. Examples of debris include non-operational satellites, rocket bodies, and fragments generated from explosions, collisions, or faulty payload assembly.

Loading next visibility...
Identifier
44693, 2018-079BF
Orbit
HEO
Country
Flag of USUS
Related business
Flag of USUnited Launch Alliance/Lockheed Martin (US)
Manufacturer
ULA Decatur
Mission
Spacecraft
Bus & Motor
Unknown
Mass
Unknown
Launch date (UTC)
2018-10-17 (8 years ago)
Launch vehicle
Unknown
Launch site
Air Force Eastern Test Range (AFETR)
Object type
Payload
Rocket body
Debris
Shape & HBR
Unknown shape, 1.1 m
Radar Cross Section
RCS unknown

Expand to show TLE details & history
Last TLE update: 1 day ago

TLE from 1 day ago
0 ATLAS 5 CENTAUR DEB
1 44693U 18079BF  26127.02942801 -.00000081  00000-0  00000-0 0  9995
2 44693  13.4567  44.1999 4679486 292.2855  25.4567  1.78463592 46146
Epoch: 2026-05-07T00:42Z
TLE epoch observation values (Epoch: 2026-05-07T00:42:22.580Z)
Latitude
0.00002°
Longitude
168.65193°
Altitude
12,675.977 km
Speed
5.287 km/s
True Right ascension
02h 56m 30s
True Declination
0° 00' 00"
Sunlit
Object was in daylight at epoch
Visualization orbit readout
Latitude
Unknown
Longitude
Unknown
Altitude
Unknown
Speed
Unknown
Apparent Right ascension
Unknown
Apparent Declination
Unknown
Sunlit
N/A
Visualization observer readout
Local Sidereal Time
12:53:08
Azimuth
Unknown
Elevation
Unknown
Doppler factor
Unknown
Orbital elements
Apogee altitude
35,769.907 km
Perigee altitude
8,898.233 km
Semi-major axis
28,712.207 km
Eccentricity
0.46795
Inclination
13.4567°
RAAN
44.1999°
Arg. of periapsis
292.2855°
True anomaly
67.89477°
Mean anomaly
25.4567°
Eccentric anomaly
44.12282°
Mean motion
0.44611 °/min
Orbital period
806.97 mins
BSTAR
0
Loading maneuver chart data...
Computing Atmospheric mass density...

Documentation

Showing up to 5 results
|